STARLINK-11619, 63272

Orbit data source: Space-Track

STARLINK-11619, 63272 is a payload satellite owned by SpaceX/Seattle (US) in LEO that was launched on Sat, 15 Mar 2025 UTC via an FALCON 9 launch vehicle from the Air Force Eastern Test Range (AFETR). Payload-class satellites include a variety of spacecraft equipped with specific instruments for various scientific and technological missions. These include communications satellites like Starlink; space stations such as the ISS; scientific satellites like the Hubble; Earth observation satellites from companies like Planet Labs, Umbra, and HawkEye 360; GPS; miniature CubeSats for education and research; and military/defense satellites.

Loading next visibility...
Identifier
63272, 2025-053H
Orbit
LEO
Country
Flag of USUS
Related business
Manufacturer
SpaceX/Seattle
Mission
Operational Commercial Communications
Bus & Motor
STARLINK V2MD, Unknown motor
Mass
960 kg wet, ~910 kg dry
Launch date (UTC)
2025-03-15 (1 year ago)
Launch vehicle
FALCON 9
Launch site
Air Force Eastern Test Range (AFETR)
Object type
Payload
Rocket body
Debris
Shape & HBR
Box + 2 Pan, 18.1 m
Radar Cross Section
36.964 m², Large (>1 m²)

Expand to show TLE details & history
Last TLE update: 11 hours ago

TLE from 11 hours ago
0 STARLINK-11619
1 63272U 25053H   26171.40568626  .00268505  00000-0  20050-2 0  9994
2 63272  42.9987 213.1250 0001710 199.6071 160.4731 15.71125186 73826
Epoch: 2026-06-20T09:44Z
TLE epoch observation values (Epoch: 2026-06-20T09:44:11.292Z)
Latitude
-0.00005°
Longitude
158.45712°
Altitude
356.536 km
Speed
7.697 km/s
True Right ascension
14h 12m 29s
True Declination
0° 00' 00"
Sunlit
Object was in full shadow at epoch
Visualization orbit readout
Latitude
Unknown
Longitude
Unknown
Altitude
Unknown
Speed
Unknown
Apparent Right ascension
Unknown
Apparent Declination
Unknown
Sunlit
N/A
Visualization observer readout
Local Sidereal Time
07:14:26
Azimuth
Unknown
Elevation
Unknown
Doppler factor
Unknown
Orbital elements
Apogee altitude
358.814 km
Perigee altitude
356.51 km
Semi-major axis
6,735.799 km
Eccentricity
0.00017
Inclination
42.9987°
RAAN
213.125°
Arg. of periapsis
199.6071°
True anomaly
160.47965°
Mean anomaly
160.4731°
Eccentric anomaly
160.47637°
Mean motion
3.92608 °/min
Orbital period
91.69 mins
BSTAR
0.002005
Loading maneuver chart data...
Computing Atmospheric mass density...
Loading historical data...
Loading historical data...
Loading historical data...
Loading historical data...
Loading historical data...
Loading historical data...
Loading historical data...

Documentation

Showing up to 5 results
|